Simultaneous Nadir Overpasses (SNOs) Predictions

Prediction of SNOs between AQUA and METOP-C Satellite Orbit:

Table of predicted SNOs for the next 14.0 days since TLE Epoch: 1/10/2025
Index Date (AQUA) Time (AQUA) Lat,Lon (AQUA) SZA (AQUA ) Date (METOP-C) Time (METOP-C) Lat,Lon (METOP-C) SZA (METOP-C ) Distance(km) Time Diff (sec)
1 01/11/2025 15:39:59 76.05, -54.15 97.67 01/11/2025 15:38:59 76.07, -54.10 97.69 2.56 60
2 01/11/2025 16:29:18 -76.09, 113.40 82.30 01/11/2025 16:29:39 -76.12, 113.41 82.27 3.78 21
3 01/14/2025 05:19:04 -76.08, -78.95 82.74 01/14/2025 05:18:37 -76.08, -79.00 82.74 1.34 27
4 01/14/2025 06:08:26 76.16, 88.46 97.34 01/14/2025 06:09:16 76.15, 88.57 97.32 3.29 50
5 01/16/2025 18:08:49 -76.04, 88.79 83.25 01/16/2025 18:07:36 -76.02, 88.57 83.27 6.41 73
6 01/16/2025 18:58:11 76.13,-103.82 96.83 01/16/2025 18:58:14 76.13,-103.72 96.84 2.78 3
7 01/16/2025 19:47:39 -76.59, 62.29 82.70 01/16/2025 19:48:45 -76.59, 65.27 82.72 76.87 66
8 01/19/2025 07:47:54 76.07, 63.98 96.26 01/19/2025 07:47:12 76.11, 63.96 96.30 3.71 42
9 01/19/2025 08:37:14 -76.15,-128.60 83.67 01/19/2025 08:37:52 -76.16,-128.52 83.66 2.41 38
10 01/21/2025 20:37:26 75.56,-126.80 95.17 01/21/2025 20:36:22 75.51,-130.22 95.16 95.34 64
11 01/21/2025 21:26:56 -76.12, 39.13 84.26 01/21/2025 21:26:50 -76.13, 39.12 84.25 0.92 6
12 01/21/2025 22:16:17 76.17,-153.35 95.78 01/21/2025 22:17:29 76.19,-153.33 95.81 2.62 72
13 01/24/2025 10:16:37 -76.11,-153.21 84.87 01/24/2025 10:15:47 -76.13,-153.11 84.85 3.00 50
14 01/24/2025 11:05:58 76.17, 14.29 95.18 01/24/2025 11:06:27 76.14, 14.27 95.16 2.59 29



Historial Predications of SNOs between AQUA and METOP-C
